This is the latest recevied weather packets stored in our database for station/object JS1SZZ-13. If no packets are shown the sender has not sent any weather packets the latest 10 day(s).
| Time | Temp. | Humidity | Pressure | Rain* | Wind** | Luminosity | Snow |
|---|---|---|---|---|---|---|---|
| 1778059801 | 16.67° C | 57% | 1015.9 hPa | 0 mm | - | - | - |
| 1778058899 | 17.22° C | 54% | 1016.2 hPa | 0 mm | - | - | - |
| 1778058000 | 17.78° C | 51% | 1015.8 hPa | 0 mm | - | - | - |
| 1778057100 | 18.33° C | 50% | 1015.8 hPa | 0 mm | - | - | - |
| 1778056199 | 18.89° C | 45% | 1015.9 hPa | 0 mm | - | - | - |
| 1778055301 | 18.89° C | 43% | 1016.1 hPa | 0 mm | - | - | - |
| 1778054400 | 20° C | 46% | 1016.1 hPa | 0 mm | - | - | - |
| 1778053500 | 20° C | 42% | 1016 hPa | 0 mm | - | - | - |
| 1778052599 | 20° C | 44% | 1016.4 hPa | 0 mm | - | - | - |
| 1778051701 | 20.56° C | 45% | 1015.4 hPa | 0 mm | - | - | - |
| 1778050800 | 20° C | 43% | 1016 hPa | 0 mm | - | - | - |
| 1778049899 | 20° C | 44% | 1016.2 hPa | 0 mm | - | - | - |
| 1778049001 | 20° C | 43% | 1015.9 hPa | 0 mm | - | - | - |
| 1778048100 | 20° C | 40% | 1016.1 hPa | 0 mm | - | - | - |
| 1778047200 | 20° C | 41% | 1015.8 hPa | 0 mm | - | - | - |
| 1778047100 | 20° C | 42% | 1015.9 hPa | 0 mm | - | - | - |
| 1778046199 | 20.56° C | 42% | 1016.2 hPa | 0 mm | - | - | - |
| 1778043686 | 21.11° C | 44% | 1016.3 hPa | 0 mm | - | - | - |
| 1778042788 | 21.11° C | 43% | 1016.5 hPa | 0 mm | - | - | - |
| 1778041887 | 20.56° C | 42% | 1016.9 hPa | 0 mm | - | - | - |
| 1778040987 | 20° C | 41% | 1016.7 hPa | 0 mm | - | - | - |
| 1778040086 | 20.56° C | 47% | 1017 hPa | 0 mm | - | - | - |
| 1778039188 | 21.11° C | 44% | 1017 hPa | 0 mm | - | - | - |
| 1778038286 | 20° C | 48% | 1017.3 hPa | 0 mm | - | - | - |
| 1778037341 | 20° C | 43% | 1017.5 hPa | 0 mm | - | - | - |
* Rain latest hour (hover to see other rain measurements)
** Current wind speed in m/s (hover to see current wind gust speed)